Weather in Uddevalla

Sweden     58°21′02″N   11°55′39″E
temp.,
°C
wind,
m/s
gust,
m/s
humid.,
%
clouds,
%
prec.,
mm/h
press.,
hPa
HPBL,
m
19 april, mon
mon1923:00+7ene256477 0.0 102777
02:00+5e266560 0.0 102799
05:00+4ene276812 0.0 1027122
08:00+6ene376137 0.0 1027235
11:00+11ene46395 0.0 1026567
14:00+15ene45335 0.0 10261048
17:00+14ne45345 0.0 1024689
20:00+9ne27535 0.0 1024152
20 april, tue
tue2023:00+7e25665 0.0 102489
02:00+5ese22685 0.0 102317
05:00+4ese11705 0.0 102210
08:00+8se12555 0.0 1021145
11:00+14sse12355 0.0 1020913
14:00+16sw22295 0.0 10181683
17:00+14wsw44355 0.0 1016812
20:00+9wsw26610 0.0 1015174
21 april, wed
wed2123:00+6sw277224 0.0 1013146
02:00+6sw31187100 0.0 1010383
05:00+6sw41195100 0.0 1008598
08:00+6wsw5106840 0.0 1006934
11:00+8wsw69545 0.0 10051450
14:00+8sw58515 0.2 10021617
17:00+8sw4545100 0.3 9991662
20:00+5wnw238099 0.3 999324
22 april, thu
thu2223:00+4nnw5118696 0.4 999508
02:00+2nnw5108899 0.6 1000619
05:00+1nnw41296100 0.9 1000773
08:00+2n61596100 2.4 10021061
11:00+4nne51394100 1.2 10061091
14:00+8nne596774 1.4 10091439
17:00+9n485682 0.2 10111662
20:00+7n395115 0.2 1013638
23 april, fri
fri2323:00+4n412570 0.0 1015463
02:00+1nw117199 0.0 101613
05:00+1n287054 0.0 1016199
08:00+3w1160100 0.2 101693
11:00+4ene1264100 0.6 1017586
14:00+7ene1259100 1.4 10161183
17:00+3nne2496100 3.1 1017395
20:00+3wsw118817 4.6 101833